Regional Weather Roundup
Issued by NWS

Home | Current Version | Previous Version | Text Only | Print | Product List | Glossary On
Versions: 1 2 3 4 5 6 7 8 9 10 11 12 13 14 15 16 17 18 19 20 21 22 23 24 25 26 27 28 29 30 31 32 33 34 35 36 37 38 39 40 41 42 43 44 45 46 47 48 49 50
000
ASPQ40 PGUM 050914
RWRPQ
WEATHER ROUNDUP FOR THE MARIANAS AND MICRONESIA
NATIONAL WEATHER SERVICE TIYAN GU
700 PM CHST WED AUG 05 2015

GUZ001>004-051000-
MARIANA ISLANDS-

CITY           SKY/WX    TMP DP  RH WIND       PRES   REMARKS
GUAM AIRPORT   PTCLDY    79  75  89 SW8       29.70R
ANDERSEN AFB   CLEAR     77  75  94 W7        29.72R
ROTA AIRPORT   NOT AVBL
TINIAN AP      NOT AVBL
SAIPAN AP      LGT RAIN  77  75  94 SW12      29.72

$$

PMZ161-051000-
REPUBLIC OF PALAU-

CITY           SKY/WX    TMP DP  RH WIND       PRES   REMARKS
KOROR AP       MOCLDY    82  75  78 W17G25    29.68R
KOROR WSO      CLOUDY    82  73  74 W9        29.71R

$$

PMZ171>174-051000-
FEDERATED STATES OF MICRONESIA-

CITY           SKY/WX    TMP DP  RH WIND       PRES   REMARKS
YAP AIRPORT    CLOUDY    82  75  78 SW12G21   29.68R
CHUUK AP       NOT AVBL
POHNPEI AP     NOT AVBL
POHNPEI WSO    CLOUDY    79  77  94 W5        29.82R
KOSRAE AP      NOT AVBL

$$

PMZ181-051000-
REPUBLIC OF THE MARSHALL ISLANDS-

CITY           SKY/WX    TMP DP  RH WIND       PRES   REMARKS
KWAJALEIN AP   PTCLDY    84  75  74 E12       29.78R HX  92
MAJURO AP      NOT AVBL
MAJURO WSO     PTCLDY    84  77  79 E6        29.77R HX  94

$$




USA.gov is the U.S. government's official web portal to all federal, state and local government web resources and services.